TimeEST,TemperatureF,Dew PointF,Humidity,Sea Level PressureIn,VisibilityMPH,Wind Direction,Wind SpeedMPH,Gust SpeedMPH,PrecipitationIn,Events,Conditions,WindDirDegrees,DateUTC
12:33 AM,30.2,26.6,86,30.02,5.0,ENE,5.8,-,0.02,Rain,Light Freezing Rain,60,2013-01-16 05:33:00
1:07 AM,30.2,28.4,93,30.02,4.0,NNE,4.6,-,0.02,Rain,Light Freezing Rain,20,2013-01-16 06:07:00
1:53 AM,30.0,28.0,92,30.05,4.0,ENE,5.8,-,0.05,Rain,Light Freezing Rain,60,2013-01-16 06:53:00
3:27 AM,30.2,28.4,93,29.99,4.0,Calm,Calm,-,0.00,,Overcast,0,2013-01-16 08:27:00
3:53 AM,30.9,28.9,92,30.02,4.0,NNE,3.5,-,0.01,,Overcast,30,2013-01-16 08:53:00
4:53 AM,30.9,28.9,92,29.99,4.0,NNE,4.6,-,0.01,,Overcast,20,2013-01-16 09:53:00
5:53 AM,30.9,28.9,92,29.96,3.0,East,3.5,-,0.00,,Overcast,90,2013-01-16 10:53:00
6:53 AM,30.9,28.9,92,29.96,3.0,NNE,3.5,-,0.00,,Overcast,30,2013-01-16 11:53:00
7:11 AM,30.2,28.4,93,29.93,2.0,NW,4.6,-,0.00,,Overcast,310,2013-01-16 12:11:00
7:18 AM,30.2,30.2,100,29.92,1.2,Calm,Calm,-,0.00,Rain,Light Freezing Rain,0,2013-01-16 12:18:00
7:35 AM,30.2,30.2,100,29.92,2.5,NW,3.5,-,0.00,Rain,Light Freezing Rain,320,2013-01-16 12:35:00
7:46 AM,30.2,30.2,100,29.92,2.0,Calm,Calm,-,0.00,,Overcast,0,2013-01-16 12:46:00
7:53 AM,30.9,30.0,96,29.95,2.0,Calm,Calm,-,0.00,,Overcast,0,2013-01-16 12:53:00
8:05 AM,30.2,30.2,100,29.92,1.0,Calm,Calm,-,N/A,,Overcast,0,2013-01-16 13:05:00
8:14 AM,30.2,30.2,100,29.94,0.5,WNW,4.6,-,N/A,Fog,Light Freezing Fog,290,2013-01-16 13:14:00
8:24 AM,30.2,30.2,100,29.92,0.2,Calm,Calm,-,N/A,Fog,Light Freezing Fog,0,2013-01-16 13:24:00
8:53 AM,30.9,30.0,96,29.99,0.2,West,3.5,-,0.01,Fog,Light Freezing Fog,280,2013-01-16 13:53:00
9:53 AM,30.9,30.0,96,29.97,0.5,West,3.5,-,N/A,Fog,Light Freezing Fog,260,2013-01-16 14:53:00
10:08 AM,30.2,30.2,100,29.92,0.2,Calm,Calm,-,N/A,Fog,Light Freezing Fog,0,2013-01-16 15:08:00
10:53 AM,30.9,30.0,96,29.97,0.2,West,4.6,-,0.01,Fog-Rain,Light Freezing Rain,260,2013-01-16 15:53:00
11:45 AM,30.2,30.2,100,29.92,0.5,West,6.9,-,0.02,Fog,Light Freezing Fog,270,2013-01-16 16:45:00
11:53 AM,30.9,30.9,100,29.95,0.5,West,4.6,-,0.02,Fog,Light Freezing Fog,270,2013-01-16 16:53:00
12:08 PM,30.2,30.2,100,29.91,1.0,West,8.1,-,N/A,,Overcast,260,2013-01-16 17:08:00
12:27 PM,30.2,30.2,100,29.89,3.0,WSW,6.9,-,N/A,,Overcast,250,2013-01-16 17:27:00
12:38 PM,32.0,30.2,93,29.90,2.0,WSW,6.9,-,N/A,,Overcast,250,2013-01-16 17:38:00
12:53 PM,32.0,30.0,92,29.94,4.0,WSW,9.2,-,N/A,,Overcast,250,2013-01-16 17:53:00
1:13 PM,32.0,30.2,93,29.89,5.0,WSW,4.6,-,N/A,,Overcast,240,2013-01-16 18:13:00
1:53 PM,32.0,30.9,96,29.94,5.0,SW,5.8,-,N/A,,Overcast,230,2013-01-16 18:53:00
2:33 PM,32.0,30.2,93,29.90,6.0,SW,8.1,-,N/A,,Overcast,220,2013-01-16 19:33:00
2:53 PM,32.0,30.0,92,29.96,8.0,SW,11.5,-,N/A,,Overcast,230,2013-01-16 19:53:00
3:53 PM,32.0,30.0,92,29.98,10.0,SW,9.2,-,N/A,,Overcast,230,2013-01-16 20:53:00
4:53 PM,32.0,30.0,92,30.00,10.0,SW,10.4,17.3,N/A,,Mostly Cloudy,220,2013-01-16 21:53:00
5:53 PM,32.0,28.9,88,30.00,10.0,SW,11.5,-,N/A,,Overcast,220,2013-01-16 22:53:00
6:53 PM,32.0,28.9,88,30.02,10.0,SW,11.5,-,N/A,,Overcast,230,2013-01-16 23:53:00
7:53 PM,32.0,28.9,88,30.03,10.0,SW,9.2,-,N/A,,Mostly Cloudy,230,2013-01-17 00:53:00
8:53 PM,30.9,28.9,92,30.04,10.0,SW,10.4,-,N/A,,Mostly Cloudy,230,2013-01-17 01:53:00
9:53 PM,30.9,28.9,92,30.04,10.0,SW,8.1,-,N/A,,Mostly Cloudy,230,2013-01-17 02:53:00
10:19 PM,30.2,28.4,93,29.99,10.0,SW,11.5,-,N/A,,Scattered Clouds,220,2013-01-17 03:19:00
10:53 PM,30.9,28.0,89,30.04,10.0,SW,9.2,-,N/A,,Partly Cloudy,220,2013-01-17 03:53:00
11:53 PM,30.9,28.0,89,30.05,10.0,SW,9.2,-,N/A,,Clear,230,2013-01-17 04:53:00